IW2LSY-11 Weather Reports


time (UTC)temp
C
wind
direction
speed
KPH
gust
KPH
rain 1hr
cm
rain 24hr
cm
rain mn
cm
humidity
%
barometer
mb
20260503072011 20 176 0.0 0.0 0.00 0.00 0.00 40 1020.0
20260503071011 21 176 0.0 0.0 0.00 0.00 0.00 39 1020.1
20260503055014 16 176 0.0 0.0 0.00 0.00 0.00 52 1020.8
20260503054013 15 176 0.0 0.0 0.00 0.00 0.00 55 1020.9
20260503053014 15 176 0.0 0.0 0.00 0.00 0.00 57 1021.0
20260503052015 13 176 0.0 0.0 0.00 0.00 0.00 60 1020.9
20260503051004 13 176 0.0 0.0 0.00 0.00 0.00 63 1021.0
20260503050005 11 176 0.0 0.0 0.00 0.00 0.00 69 1021.1
20260503045004 10 176 0.0 0.0 0.00 0.00 0.00 76 1021.2
20260503044004 10 176 0.0 0.0 0.00 0.00 0.00 76 1021.2
20260503043004 10 176 0.0 0.0 0.00 0.00 0.00 77 1021.1
20260503042004 10 176 0.0 0.0 0.00 0.00 0.00 80 1021.1
20260503041005 10 176 0.0 0.0 0.00 0.00 0.00 81 1021.1
20260503040005 8 176 0.0 0.0 0.00 0.00 0.00 86 1021.1
20260503035005 9 176 0.0 0.0 0.00 0.00 0.00 84 1021.2
20260503034005 10 176 0.0 0.0 0.00 0.00 0.00 81 1021.3
20260503033006 10 176 0.0 0.0 0.00 0.00 0.00 77 1021.3
20260503032006 10 176 0.0 0.0 0.00 0.00 0.00 81 1021.3
20260503031006 10 176 0.0 0.0 0.00 0.00 0.00 80 1021.4
20260503030006 10 176 0.0 0.0 0.00 0.00 0.00 79 1021.4
20260503025007 10 176 0.0 0.0 0.00 0.00 0.00 81 1021.5
20260503024007 10 176 0.0 0.0 0.00 0.00 0.00 82 1021.6
20260503023007 10 176 0.0 0.0 0.00 0.00 0.00 81 1021.6
20260503022007 10 176 0.0 0.0 0.00 0.00 0.00 79 1021.6
20260503021008 10 176 0.0 0.0 0.00 0.00 0.00 82 1021.6
20260503020008 10 176 0.0 0.0 0.00 0.00 0.00 81 1021.6
20260503015008 11 176 0.0 0.0 0.00 0.00 0.00 78 1021.6
20260503014008 10 176 0.0 0.0 0.00 0.00 0.00 78 1021.6
20260503013008 11 176 0.0 0.0 0.00 0.00 0.00 77 1021.7
20260503012009 11 176 0.0 0.0 0.00 0.00 0.00 76 1021.6
20260503011008 11 176 0.0 0.0 0.00 0.00 0.00 75 1021.7
20260503010009 11 176 0.0 0.0 0.00 0.00 0.00 77 1021.8
20260503005008 11 176 0.0 0.0 0.00 0.00 0.00 77 1021.8
20260503004009 11 176 0.0 0.0 0.00 0.00 0.00 74 1021.8
20260503003009 12 176 0.0 0.0 0.00 0.00 0.00 73 1021.9
20260503002010 11 176 0.0 0.0 0.00 0.00 0.00 77 1021.9
20260503001010 11 176 0.0 0.0 0.00 0.00 0.00 76 1022.0
20260503000010 12 176 0.0 0.0 0.00 0.00 0.00 72 1022.0
20260502235010 11 176 0.0 0.0 0.00 0.00 0.00 75 1022.1
20260502234010 12 176 0.0 0.0 0.00 0.00 0.00 73 1022.1
20260502233010 12 176 0.0 0.0 0.00 0.00 0.00 72 1022.2
20260502232010 12 176 0.0 0.0 0.00 0.00 0.00 73 1022.2
20260502231010 12 176 0.0 0.0 0.00 0.00 0.00 72 1022.2
20260502230013 12 176 0.0 0.0 0.00 0.00 0.00 70 1022.3
20260502225012 13 172 0.0 0.0 0.00 0.00 0.00 69 1022.2
20260502224012 13 172 0.0 0.0 0.00 0.00 0.00 66 1022.1
20260502223012 13 172 0.0 0.0 0.00 0.00 0.00 68 1022.0
20260502222013 13 172 0.0 0.0 0.00 0.00 0.00 64 1022.0
20260502221013 14 172 0.0 0.0 0.00 0.00 0.00 62 1022.0
20260502220013 13 172 0.0 0.0 0.00 0.00 0.00 63 1022.0
20260502215014 15 172 0.0 0.0 0.00 0.00 0.00 60 1021.8
20260502214014 14 172 0.0 0.0 0.00 0.00 0.00 62 1021.8
20260502213014 15 172 0.0 0.0 0.00 0.00 0.00 60 1021.7
20260502212014 15 172 0.0 0.0 0.00 0.00 0.00 59 1021.7
20260502211014 15 172 0.0 0.0 0.00 0.00 0.00 56 1021.7
20260502210014 15 172 0.0 0.0 0.00 0.00 0.00 56 1021.8
20260502205014 15 172 0.0 0.0 0.00 0.00 0.00 54 1021.8
20260502204013 16 172 0.0 0.0 0.00 0.00 0.00 53 1021.6
20260502203013 15 172 0.0 0.0 0.00 0.00 0.00 54 1021.5
20260502202013 16 172 0.0 0.0 0.00 0.00 0.00 53 1021.5
20260502201013 16 172 0.0 0.0 0.00 0.00 0.00 51 1021.5
20260502200014 16 172 0.0 0.0 0.00 0.00 0.00 50 1021.5
20260502195014 17 172 0.0 0.0 0.00 0.00 0.00 49 1021.3
20260502194014 16 172 0.0 0.0 0.00 0.00 0.00 50 1021.2
20260502193014 17 172 0.0 0.0 0.00 0.00 0.00 49 1021.1
20260502192014 17 172 0.0 0.0 0.00 0.00 0.00 46 1020.9
20260502191014 17 172 0.0 0.0 0.00 0.00 0.00 47 1020.8
20260502190014 17 172 0.0 0.0 0.00 0.00 0.00 45 1020.7
20260502185015 18 172 0.0 0.0 0.00 0.00 0.00 45 1020.5
20260502184004 18 172 0.0 0.0 0.00 0.00 0.00 43 1020.3
20260502183014 20 172 0.0 0.0 0.00 0.00 0.00 42 1020.1
20260502182014 20 172 0.0 0.0 0.00 0.00 0.00 41 1019.9
20260502181014 20 172 0.0 0.0 0.00 0.00 0.00 41 1019.8
20260502164014 23 172 0.0 0.0 0.00 0.00 0.00 29 1019.2
20260502163014 23 172 0.0 0.0 0.00 0.00 0.00 29 1019.2
20260502162014 23 172 0.0 0.0 0.00 0.00 0.00 29 1019.3
20260502161014 24 172 0.0 0.0 0.00 0.00 0.00 28 1019.3
20260502152014 25 172 0.0 0.0 0.00 0.00 0.00 28 1019.6
20260502151014 25 172 0.0 0.0 0.00 0.00 0.00 27 1019.7
20260502123007 23 172 0.0 0.0 0.00 0.00 0.00 29 1021.8
20260502122006 23 172 0.0 0.0 0.00 0.00 0.00 29 1022.0
20260502121007 24 172 0.0 0.0 0.00 0.00 0.00 29 1022.2
20260502115008 23 172 0.0 0.0 0.00 0.00 0.00 30 1022.5
20260502114009 23 172 0.0 0.0 0.00 0.00 0.00 29 1022.7
20260502113009 22 172 0.0 0.0 0.00 0.00 0.00 29 1022.9
20260502112009 22 172 0.0 0.0 0.00 0.00 0.00 29 1023.1
20260502111010 22 172 0.0 0.0 0.00 0.00 0.00 31 1023.4
20260502110010 22 172 0.0 0.0 0.00 0.00 0.00 32 1023.7
20260502105010 22 172 0.0 0.0 0.00 0.00 0.00 33 1023.8
20260502104010 21 172 0.0 0.0 0.00 0.00 0.00 34 1024.0
20260502103010 21 172 0.0 0.0 0.00 0.00 0.00 34 1024.1
20260502102010 21 172 0.0 0.0 0.00 0.00 0.00 34 1024.3
20260502101010 21 172 0.0 0.0 0.00 0.00 0.00 35 1024.5
20260502091012 20 172 0.0 0.0 0.00 0.00 0.00 38 1025.4